Weather History for Whiteman AFB, MO

Change the Weather History Date:

Thursday, March 7, 2013

  Actual Average Record
Temperature  
Mean Temperature 30 °F -  
Max Temperature 42 °F 47 °F 72 °F (2009)
Min Temperature 18 °F 27 °F 18 °F (2008)
Degree Days  
Heating Degree Days 35    
Moisture  
Dew Point 25 °F    
Average Humidity 77    
Maximum Humidity 99    
Minimum Humidity 61    
Precipitation  
Precipitation 0.00 in - - ()
Sea Level Pressure  
Sea Level Pressure 30.29 in    
Wind  
Wind Speed 5 mph (East)    
Max Wind Speed 10 mph    
Max Gust Speed -    
Visibility 10 miles    
Events      
Averages and records for this station are not official NWS values.
T = Trace of Precipitation, MM = Missing Value Source: NWS Daily Summary

Daily Weather History Graph

Daily Weather History Graph

Search for Another Location

Airport:

Trip Planner

Search our weather history database for the weather conditions in past years. The results will help you decide how hot, cold, wet, or windy it might be!

Date:

Astronomy

Mar. 07, 2013 Rise Set
Actual Time 6:37 AM CST 6:13 PM CST
Civil Twilight 6:10 AM CST 6:40 PM CST
Nautical Twilight 5:39 AM CST 7:10 PM CST
Astronomical Twilight 5:09 AM CST 7:41 PM CST
Moon 3:35 AM CST (3/7) 2:04 PM CST (3/7)
Length of Visible Light 12h 29m
Length of Day
11h 36m
Waning Crescent, 20% of the Moon is Illuminated
Mar 7
Waning Crescent
Mar 11
New
Mar 19
First Quarter
Mar 27
Full
Apr 2
Last Quarter

Hourly Weather History & Observations

Time (CST) Temp. Windchill Dew Point Humidity Pressure Visibility Wind Dir Wind Speed Gust Speed Precip Events Conditions
12:58 AM 20.1 °F - 19.9 °F 99% 30.34 in 10.0 mi Calm Calm - N/A   Clear
1:58 AM 19.4 °F 14.3 °F 19.2 °F 99% 30.35 in 10.0 mi East 3.5 mph - N/A   Clear
2:58 AM 19.2 °F - 18.9 °F 98% 30.35 in 10.0 mi East 2.3 mph - N/A   Clear
3:58 AM 18.5 °F 8.4 °F 18.3 °F 99% 30.34 in 10.0 mi ESE 8.1 mph - N/A   Clear
4:58 AM 20.5 °F 10.8 °F 19.4 °F 96% 30.33 in 10.0 mi ESE 8.1 mph - N/A   Clear
5:58 AM 20.3 °F 13.8 °F 18.9 °F 94% 30.34 in 10.0 mi East 4.6 mph - N/A   Clear
6:58 AM 19.2 °F 10.2 °F 18.0 °F 95% 30.35 in 10.0 mi East 6.9 mph - N/A   Clear
7:58 AM 22.3 °F 14.9 °F 19.4 °F 89% 30.36 in 10.0 mi East 5.8 mph - N/A   Clear
8:58 AM 27.5 °F 20.2 °F 21.6 °F 78% 30.35 in 10.0 mi ESE 6.9 mph - N/A   Clear
9:58 AM 31.8 °F 23.3 °F 24.3 °F 74% 30.34 in 10.0 mi East 10.4 mph - N/A   Clear
10:58 AM 35.8 °F 30.9 °F 26.4 °F 69% 30.34 in 10.0 mi East 5.8 mph - N/A   Clear
11:58 AM 38.8 °F 35.4 °F 26.2 °F 61% 30.33 in 10.0 mi East 4.6 mph - N/A   Clear
12:58 PM 39.6 °F 34.7 °F 28.2 °F 64% 30.30 in 10.0 mi East 6.9 mph - N/A   Clear
1:58 PM 41.9 °F 37.5 °F 29.1 °F 61% 30.27 in 10.0 mi East 6.9 mph - N/A   Clear
2:58 PM 41.7 °F 36.7 °F 30.0 °F 63% 30.25 in 10.0 mi East 8.1 mph - N/A   Clear
3:58 PM 42.3 °F 37.3 °F 30.2 °F 62% 30.23 in 10.0 mi East 8.1 mph - N/A   Clear
4:58 PM 42.3 °F 37.3 °F 30.6 °F 63% 30.21 in 10.0 mi East 8.1 mph - N/A   Clear
5:58 PM 42.1 °F 37.7 °F 30.2 °F 63% 30.21 in 10.0 mi East 6.9 mph - N/A   Clear
6:58 PM 40.5 °F 35.1 °F 29.8 °F 66% 30.22 in 10.0 mi East 8.1 mph - N/A   Clear
7:58 PM 39.4 °F 34.5 °F 29.8 °F 69% 30.23 in 10.0 mi East 6.9 mph - N/A   Clear
8:58 PM 39.4 °F 32.7 °F 29.5 °F 68% 30.23 in 10.0 mi East 10.4 mph - N/A   Clear
9:58 PM 37.9 °F 32.1 °F 29.3 °F 71% 30.24 in 10.0 mi East 8.1 mph - N/A   Clear
10:58 PM 36.0 °F 30.3 °F 29.5 °F 77% 30.25 in 10.0 mi East 6.9 mph - N/A   Clear
11:58 PM 34.5 °F 28.6 °F 29.1 °F 81% 30.25 in 10.0 mi ESE 6.9 mph - N/A   Clear